Location: Unnamed
(50.9656°N, 7.0654°E)
Time: 17:51:50
(UTC+02:00)

ISS - Pass Details

Date: 15 May 2020
Orbit: 417 x 420 km, 51.6° (Epoch: 26 May)

Event Time Altitude Azimuth Distance (km) Brightness Sun altitude
Exits shadow 02:16:11 18° 277° (W) 1,099 -1.7 -19.3°
Maximum altitude 02:18:33 77° 1° (N) 436 -3.7 -19.2°
Drops below altitude 10° 02:21:56 10° 89° (E) 1,506 -0.8 -19.1°
Sets 02:24:02 0° 91° (E) 2,370 0.2 -19.0°
